Station Historical Data
Daily Summary for June 11, 2017 Units:  English    Metric   Both
Next Day »
Daily Weekly Monthly Yearly Custom
  High: Low: Average:
Temperature: 54.0 °F 42.2 °F 46.5 °F
Dew Point: 45.6 °F 38.1 °F 41 °F
Humidity: 87% 67% 81%
Wind Speed: 18.0mph 0.0mph 2.6mph
Wind Gust: 23.0mph - -
Wind- - SSE
Pressure: 30.03 in 29.84 in -
Precipitation: 0.05 in    
Historical Graphs
 
 
Tabular Data for June 11, 2017
Time Temperature Dew Point Pressure Wind Wind Speed Wind Gust Humidity Rainfall Rate (Hourly) solar Conditions
00:03 50.9 °F 44.6 °F 29.90 in South 8.0 mph 9.0 mph 79% 0.00 in 0.00 W/m2
00:08 50.8 °F 44.5 °F 29.90 in South 5.0 mph 10.0 mph 79% 0.00 in 0.00 W/m2
00:13 50.7 °F 44.4 °F 29.90 in South 8.0 mph 12.0 mph 79% 0.00 in 0.00 W/m2
00:18 50.5 °F 44.2 °F 29.90 in South 7.0 mph 12.0 mph 79% 0.00 in 0.00 W/m2
00:23 50.4 °F 44.1 °F 29.90 in South 10.0 mph 11.0 mph 79% 0.00 in 0.00 W/m2
00:33 50.2 °F 44.0 °F 29.90 in South 10.0 mph 12.0 mph 79% 0.00 in 0.00 W/m2
00:38 50.0 °F 43.8 °F 29.90 in SSW 9.0 mph 13.0 mph 79% 0.00 in 0.00 W/m2
00:43 49.9 °F 43.7 °F 29.90 in South 8.0 mph 10.0 mph 79% 0.00 in 0.00 W/m2
00:48 49.8 °F 43.6 °F 29.89 in Calm   10.0 mph 79% 0.00 in 0.00 W/m2
00:54 49.7 °F 43.5 °F 29.90 in Calm   8.0 mph 79% 0.00 in 0.00 W/m2
00:59 49.6 °F 43.4 °F 29.90 in SSW 6.0 mph 10.0 mph 79% 0.00 in 0.00 W/m2
01:04 49.4 °F 43.2 °F 29.90 in South 8.0 mph 12.0 mph 79% 0.00 in 0.00 W/m2
01:09 49.3 °F 43.1 °F 29.89 in Calm   10.0 mph 79% 0.00 in 0.00 W/m2
01:14 49.2 °F 43.0 °F 29.89 in Calm   9.0 mph 79% 0.00 in 0.00 W/m2
01:19 49.1 °F 42.9 °F 29.89 in Calm   11.0 mph 79% 0.00 in 0.00 W/m2
01:24 49.0 °F 42.8 °F 29.89 in SSW 8.0 mph 11.0 mph 79% 0.00 in 0.00 W/m2
01:34 48.8 °F 42.9 °F 29.89 in South 4.0 mph 12.0 mph 80% 0.00 in 0.00 W/m2
01:39 48.7 °F 42.8 °F 29.89 in Calm   9.0 mph 80% 0.00 in 0.00 W/m2
01:44 48.5 °F 42.6 °F 29.89 in South 7.0 mph 13.0 mph 80% 0.00 in 0.00 W/m2
01:49 48.4 °F 42.5 °F 29.89 in South 1.0 mph 9.0 mph 80% 0.00 in 0.00 W/m2
01:54 48.2 °F 42.0 °F 29.89 in South 7.0 mph 10.0 mph 79% 0.00 in 0.00 W/m2
02:04 48.0 °F 41.5 °F 29.89 in Calm   1.0 mph 78% 0.00 in 0.00 W/m2
02:09 47.8 °F 41.3 °F 29.89 in Calm     78% 0.00 in 0.00 W/m2
02:14 47.8 °F 41.0 °F 29.89 in Calm     77% 0.00 in 0.00 W/m2
02:19 47.7 °F 40.8 °F 29.89 in Calm     77% 0.00 in 0.00 W/m2
02:24 47.6 °F 40.8 °F 29.89 in Calm     77% 0.00 in 0.00 W/m2
02:29 47.6 °F 40.8 °F 29.88 in Calm     77% 0.00 in 0.00 W/m2
02:34 47.5 °F 40.7 °F 29.88 in Calm     77% 0.00 in 0.00 W/m2
02:40 47.4 °F 40.6 °F 29.88 in Calm   10.0 mph 77% 0.00 in 0.00 W/m2
02:45 47.3 °F 40.5 °F 29.88 in South 7.0 mph 9.0 mph 77% 0.00 in 0.00 W/m2
02:50 47.3 °F 40.5 °F 29.88 in Calm   9.0 mph 77% 0.00 in 0.00 W/m2
02:55 47.2 °F 40.4 °F 29.88 in Calm     77% 0.00 in 0.00 W/m2
03:00 47.2 °F 40.4 °F 29.88 in Calm     77% 0.00 in 0.00 W/m2
03:05 47.1 °F 40.3 °F 29.88 in Calm     77% 0.00 in 0.00 W/m2
03:10 47.0 °F 40.5 °F 29.88 in Calm     78% 0.00 in 0.00 W/m2
03:15 46.9 °F 40.4 °F 29.88 in Calm     78% 0.00 in 0.00 W/m2
03:20 46.8 °F 40.3 °F 29.88 in Calm     78% 0.00 in 0.00 W/m2
03:25 46.7 °F 40.2 °F 29.88 in Calm     78% 0.00 in 0.00 W/m2
03:30 46.7 °F 40.2 °F 29.87 in Calm     78% 0.00 in 0.00 W/m2
03:35 46.6 °F 40.1 °F 29.87 in Calm     78% 0.00 in 0.00 W/m2
03:40 46.5 °F 40.3 °F 29.87 in Calm     79% 0.00 in 0.00 W/m2
03:45 46.4 °F 40.2 °F 29.87 in Calm     79% 0.00 in 0.00 W/m2
03:50 46.3 °F 40.2 °F 29.86 in Calm     79% 0.00 in 0.00 W/m2
03:55 46.2 °F 40.1 °F 29.87 in Calm     79% 0.00 in 0.00 W/m2
04:00 46.1 °F 40.0 °F 29.87 in Calm     79% 0.00 in 0.00 W/m2
04:05 46.1 °F 40.0 °F 29.87 in Calm     79% 0.00 in 0.00 W/m2
04:10 46.0 °F 39.9 °F 29.86 in Calm     79% 0.00 in 0.00 W/m2
04:15 45.9 °F 40.1 °F 29.86 in Calm     80% 0.00 in 0.00 W/m2
04:20 45.8 °F 40.0 °F 29.86 in Calm     80% 0.00 in 0.00 W/m2
04:25 45.6 °F 39.8 °F 29.86 in Calm     80% 0.00 in 0.00 W/m2
04:30 45.5 °F 39.7 °F 29.85 in Calm     80% 0.00 in 0.00 W/m2
04:31 45.5 °F 39.7 °F 29.85 in Calm     80% 0.00 in 0.00 W/m2
04:36 45.3 °F 39.8 °F 29.85 in Calm     81% 0.00 in 0.00 W/m2
04:41 45.1 °F 39.6 °F 29.85 in Calm     81% 0.00 in 0.00 W/m2
04:46 44.9 °F 39.4 °F 29.85 in Calm     81% 0.00 in 0.00 W/m2
04:51 44.7 °F 39.2 °F 29.85 in Calm     81% 0.00 in 0.00 W/m2
04:56 44.5 °F 39.4 °F 29.85 in Calm     82% 0.00 in 0.00 W/m2
05:01 44.3 °F 39.2 °F 29.84 in Calm     82% 0.00 in 0.00 W/m2
05:06 44.2 °F 39.1 °F 29.84 in Calm     82% 0.00 in 0.00 W/m2
05:11 44.0 °F 38.9 °F 29.84 in Calm     82% 0.00 in 0.00 W/m2
05:16 44.0 °F 39.2 °F 29.84 in Calm   2.0 mph 83% 0.00 in 0.00 W/m2
05:21 43.8 °F 39.0 °F 29.84 in SSE 2.0 mph 2.0 mph 83% 0.00 in 0.00 W/m2
05:26 43.8 °F 39.0 °F 29.84 in SSE 4.0 mph 6.0 mph 83% 0.00 in 0.00 W/m2
05:31 43.8 °F 39.3 °F 29.84 in Calm   1.0 mph 84% 0.00 in 0.00 W/m2
05:36 43.8 °F 39.3 °F 29.84 in Calm   1.0 mph 84% 0.00 in 5.00 W/m2
05:41 43.7 °F 39.2 °F 29.85 in Calm   1.0 mph 84% 0.00 in 7.00 W/m2
05:46 43.7 °F 39.2 °F 29.85 in Calm     84% 0.00 in 9.00 W/m2
05:51 43.7 °F 39.2 °F 29.85 in Calm     84% 0.00 in 9.00 W/m2
05:56 43.5 °F 39.0 °F 29.85 in Calm     84% 0.00 in 12.00 W/m2
06:01 43.3 °F 39.1 °F 29.86 in Calm     85% 0.00 in 14.00 W/m2
06:06 43.1 °F 38.9 °F 29.86 in Calm     85% 0.00 in 16.00 W/m2
06:11 43.0 °F 38.8 °F 29.86 in Calm     85% 0.00 in 23.00 W/m2
06:16 42.9 °F 38.7 °F 29.87 in Calm     85% 0.00 in 46.00 W/m2
06:21 42.9 °F 39.0 °F 29.87 in Calm     86% 0.00 in 56.00 W/m2
06:26 42.9 °F 39.0 °F 29.87 in Calm     86% 0.00 in 54.00 W/m2
06:31 42.9 °F 39.0 °F 29.87 in Calm     86% 0.00 in 49.00 W/m2
06:36 42.9 °F 39.0 °F 29.87 in South 8.0 mph 8.0 mph 86% 0.00 in 60.00 W/m2
06:37 42.9 °F 39.0 °F 29.87 in South 2.0 mph 8.0 mph 86% 0.00 in 70.00 W/m2
06:42 43.0 °F 39.1 °F 29.87 in Calm     86% 0.00 in 67.00 W/m2
06:47 43.0 °F 39.4 °F 29.87 in South 8.0 mph 9.0 mph 87% 0.00 in 56.00 W/m2
06:52 43.1 °F 39.5 °F 29.87 in South 4.0 mph 8.0 mph 87% 0.00 in 56.00 W/m2
06:57 43.2 °F 39.6 °F 29.87 in Calm     87% 0.00 in 35.00 W/m2
07:02 43.3 °F 39.7 °F 29.87 in Calm     87% 0.00 in 65.00 W/m2
07:07 43.3 °F 39.7 °F 29.87 in South 6.0 mph 10.0 mph 87% 0.00 in 53.00 W/m2
07:12 43.4 °F 39.8 °F 29.87 in Calm   9.0 mph 87% 0.00 in 49.00 W/m2
07:17 43.4 °F 39.8 °F 29.88 in South 3.0 mph 6.0 mph 87% 0.00 in 49.00 W/m2
07:22 43.5 °F 39.9 °F 29.88 in Calm     87% 0.00 in 54.00 W/m2
07:27 43.5 °F 39.9 °F 29.88 in South 5.0 mph 7.0 mph 87% 0.00 in 42.00 W/m2
07:32 43.5 °F 39.9 °F 29.88 in Calm   10.0 mph 87% 0.00 in 35.00 W/m2
07:37 43.5 °F 39.9 °F 29.88 in Calm   11.0 mph 87% 0.00 in 21.00 W/m2
07:42 43.4 °F 39.8 °F 29.88 in Calm   1.0 mph 87% 0.00 in 28.00 W/m2
07:47 43.4 °F 39.8 °F 29.88 in Calm   6.0 mph 87% 0.00 in 23.00 W/m2
07:52 43.4 °F 39.8 °F 29.88 in Calm     87% 0.00 in 62.00 W/m2
07:57 43.4 °F 39.8 °F 29.88 in South 9.0 mph 9.0 mph 87% 0.00 in 46.00 W/m2
08:02 43.4 °F 39.8 °F 29.88 in South 8.0 mph 9.0 mph 87% 0.00 in 77.00 W/m2
08:07 43.4 °F 39.8 °F 29.88 in Calm     87% 0.00 in 81.00 W/m2
08:13 43.4 °F 39.8 °F 29.88 in Calm     87% 0.00 in 93.00 W/m2
08:18 43.5 °F 39.9 °F 29.88 in Calm     87% 0.00 in 86.00 W/m2
08:23 43.5 °F 39.9 °F 29.88 in Calm     87% 0.00 in 127.00 W/m2
08:28 43.6 °F 40.0 °F 29.88 in Calm     87% 0.00 in 123.00 W/m2
08:33 43.7 °F 40.1 °F 29.88 in Calm     87% 0.00 in 156.00 W/m2
08:38 43.8 °F 40.2 °F 29.88 in Calm     87% 0.00 in 139.00 W/m2
08:43 43.9 °F 40.3 °F 29.88 in Calm     87% 0.00 in 158.00 W/m2
08:48 44.0 °F 40.4 °F 29.88 in Calm     87% 0.00 in 241.00 W/m2
08:53 44.1 °F 40.5 °F 29.88 in SSE 6.0 mph 10.0 mph 87% 0.00 in 185.00 W/m2
08:58 44.3 °F 40.7 °F 29.88 in Calm   9.0 mph 87% 0.00 in 207.00 W/m2
09:03 44.4 °F 40.5 °F 29.89 in Calm   10.0 mph 86% 0.00 in 183.00 W/m2
09:08 44.5 °F 40.6 °F 29.89 in South 6.0 mph 13.0 mph 86% 0.00 in 269.00 W/m2
09:13 44.7 °F 40.8 °F 29.89 in SSE 7.0 mph 10.0 mph 86% 0.00 in 408.00 W/m2
09:18 44.9 °F 41.0 °F 29.89 in SSE 6.0 mph 12.0 mph 86% 0.00 in 330.00 W/m2
09:23 45.1 °F 40.9 °F 29.89 in Calm   11.0 mph 85% 0.00 in 220.00 W/m2
09:28 45.2 °F 41.0 °F 29.89 in Calm   5.0 mph 85% 0.00 in 244.00 W/m2
09:33 45.3 °F 40.8 °F 29.89 in Calm   7.0 mph 84% 0.00 in 362.00 W/m2
09:38 45.4 °F 40.5 °F 29.89 in Calm     83% 0.00 in 448.00 W/m2
09:43 45.6 °F 40.4 °F 29.89 in Calm     82% 0.00 in 267.00 W/m2
09:48 45.8 °F 40.0 °F 29.89 in Calm     80% 0.00 in 243.00 W/m2
09:53 46.0 °F 40.2 °F 29.89 in Calm     80% 0.00 in 244.00 W/m2
09:58 46.2 °F 40.4 °F 29.89 in Calm     80% 0.00 in 221.00 W/m2
10:03 46.3 °F 40.5 °F 29.89 in Calm     80% 0.00 in 274.00 W/m2
10:08 46.4 °F 40.6 °F 29.89 in Calm     80% 0.00 in 325.00 W/m2
10:13 46.5 °F 40.7 °F 29.89 in Calm     80% 0.00 in 267.00 W/m2
10:18 46.6 °F 40.8 °F 29.89 in Calm     80% 0.00 in 225.00 W/m2
10:23 46.7 °F 40.9 °F 29.89 in Calm     80% 0.00 in 207.00 W/m2
10:28 46.7 °F 40.9 °F 29.89 in Calm   1.0 mph 80% 0.00 in 218.00 W/m2
10:33 46.8 °F 41.0 °F 29.89 in Calm   1.0 mph 80% 0.00 in 309.00 W/m2
10:38 46.8 °F 41.3 °F 29.89 in Calm   1.0 mph 81% 0.00 in 666.00 W/m2
10:43 46.9 °F 41.1 °F 29.90 in Calm     80% 0.00 in 499.00 W/m2
10:48 47.0 °F 41.2 °F 29.90 in Calm   1.0 mph 80% 0.00 in 383.00 W/m2
10:53 47.1 °F 41.3 °F 29.90 in Calm   1.0 mph 80% 0.00 in 253.00 W/m2
10:58 47.3 °F 41.8 °F 29.90 in Calm   9.0 mph 81% 0.00 in 383.00 W/m2
11:03 47.4 °F 41.9 °F 29.90 in Calm   1.0 mph 81% 0.00 in 446.00 W/m2
11:08 47.6 °F 42.1 °F 29.90 in South 6.0 mph 10.0 mph 81% 0.00 in 466.00 W/m2
11:13 47.9 °F 42.0 °F 29.90 in Calm   9.0 mph 80% 0.00 in 325.00 W/m2
11:18 48.1 °F 41.6 °F 29.91 in Calm   1.0 mph 78% 0.00 in 1195.00 W/m2
11:23 48.3 °F 41.8 °F 29.91 in Calm   1.0 mph 78% 0.00 in 338.00 W/m2
11:28 48.4 °F 41.5 °F 29.91 in SW 6.0 mph 12.0 mph 77% 0.00 in 318.00 W/m2
11:33 48.6 °F 42.1 °F 29.91 in SW 6.0 mph 12.0 mph 78% 0.00 in 336.00 W/m2
11:38 48.6 °F 42.1 °F 29.91 in SSW 7.0 mph 12.0 mph 78% 0.00 in 448.00 W/m2
11:43 48.7 °F 41.8 °F 29.91 in Calm   11.0 mph 77% 0.00 in 260.00 W/m2
11:48 48.8 °F 41.9 °F 29.91 in Calm     77% 0.00 in 555.00 W/m2
11:53 48.9 °F 42.0 °F 29.91 in Calm   8.0 mph 77% 0.00 in 327.00 W/m2
11:58 49.0 °F 41.8 °F 29.91 in Calm   12.0 mph 76% 0.00 in 483.00 W/m2
12:03 49.4 °F 41.8 °F 29.92 in SSW 10.0 mph 12.0 mph 75% 0.00 in 1255.00 W/m2
12:08 49.9 °F 41.6 °F 29.91 in South 9.0 mph 12.0 mph 73% 0.00 in 1134.00 W/m2
12:13 50.5 °F 42.2 °F 29.92 in SW 7.0 mph 11.0 mph 73% 0.00 in 260.00 W/m2
12:18 50.9 °F 41.8 °F 29.92 in SSW 7.0 mph 10.0 mph 71% 0.00 in 359.00 W/m2
12:23 51.1 °F 42.0 °F 29.92 in SW 7.0 mph 13.0 mph 71% 0.00 in 1252.00 W/m2
12:29 51.5 °F 41.7 °F 29.92 in SW 6.0 mph 16.0 mph 69% 0.00 in 1266.00 W/m2
12:33 51.9 °F 41.3 °F 29.92 in Calm   9.0 mph 67% 0.00 in 366.00 W/m2
12:38 52.0 °F 41.4 °F 29.92 in Calm   1.0 mph 67% 0.00 in 381.00 W/m2
12:43 52.1 °F 42.6 °F 29.92 in Calm   9.0 mph 70% 0.00 in 445.00 W/m2
12:49 52.2 °F 42.7 °F 29.92 in SSW 1.0 mph 9.0 mph 70% 0.00 in 330.00 W/m2
12:54 52.4 °F 42.5 °F 29.92 in Calm   12.0 mph 69% 0.00 in 325.00 W/m2
12:59 52.3 °F 42.5 °F 29.92 in Calm   10.0 mph 69% 0.00 in 306.00 W/m2
13:04 52.0 °F 42.2 °F 29.92 in WSW 5.0 mph 14.0 mph 69% 0.00 in 373.00 W/m2
13:09 51.8 °F 42.0 °F 29.92 in Calm   9.0 mph 69% 0.00 in 450.00 W/m2
13:14 51.8 °F 42.7 °F 29.92 in WSW 6.0 mph 11.0 mph 71% 0.00 in 522.00 W/m2
13:19 51.9 °F 42.4 °F 29.93 in WSW 10.0 mph 15.0 mph 70% 0.00 in 385.00 W/m2
13:24 51.9 °F 42.1 °F 29.93 in SW 1.0 mph 14.0 mph 69% 0.00 in 369.00 W/m2
13:29 51.8 °F 42.0 °F 29.93 in SW 9.0 mph 13.0 mph 69% 0.00 in 366.00 W/m2
13:34 51.5 °F 42.0 °F 29.93 in Calm   6.0 mph 70% 0.00 in 529.00 W/m2
13:39 51.5 °F 42.0 °F 29.92 in Calm   1.0 mph 70% 0.00 in 1035.00 W/m2
13:44 51.7 °F 42.6 °F 29.93 in South 3.0 mph 11.0 mph 71% 0.00 in 598.00 W/m2
13:49 52.1 °F 43.0 °F 29.92 in SSW 6.0 mph 8.0 mph 71% 0.00 in 425.00 W/m2
13:54 52.4 °F 43.3 °F 29.92 in Calm   1.0 mph 71% 0.00 in 1123.00 W/m2
13:59 52.8 °F 43.7 °F 29.92 in SSW 5.0 mph 12.0 mph 71% 0.00 in 1072.00 W/m2
14:04 53.3 °F 43.8 °F 29.92 in SSW 4.0 mph 13.0 mph 70% 0.00 in 1136.00 W/m2
14:09 53.7 °F 43.8 °F 29.92 in SSW 3.0 mph 11.0 mph 69% 0.00 in 388.00 W/m2
14:14 53.9 °F 43.6 °F 29.93 in SSW 8.0 mph 12.0 mph 68% 0.00 in 919.00 W/m2
14:19 54.0 °F 43.7 °F 29.92 in Calm   10.0 mph 68% 0.00 in 301.00 W/m2
14:24 54.0 °F 43.3 °F 29.93 in SSW 6.0 mph 11.0 mph 67% 0.00 in 214.00 W/m2
14:29 53.8 °F 43.1 °F 29.93 in Calm   12.0 mph 67% 0.00 in 199.00 W/m2
14:34 53.6 °F 44.4 °F 29.93 in WSW 3.0 mph 12.0 mph 71% 0.00 in 162.00 W/m2
14:39 53.0 °F 45.0 °F 29.93 in SW 6.0 mph 8.0 mph 74% 0.00 in 130.00 W/m2
14:41 52.8 °F 45.1 °F 29.93 in SW 6.0 mph 6.0 mph 75% 0.00 in 125.00 W/m2
14:46 52.4 °F 45.4 °F 29.93 in Calm     77% 0.12 in 121.00 W/m2
14:51 51.7 °F 44.7 °F 29.93 in Calm     77% 0.10 in 104.00 W/m2
14:56 50.9 °F 44.6 °F 29.93 in Calm     79% 0.06 in 102.00 W/m2
15:01 50.4 °F 45.1 °F 29.93 in Calm     82% 0.04 in 128.00 W/m2
15:06 50.2 °F 45.2 °F 29.93 in Calm     83% 0.00 in 163.00 W/m2
15:07 50.2 °F 45.2 °F 29.93 in Calm     83% 0.00 in 183.00 W/m2
15:12 50.1 °F 45.5 °F 29.93 in Calm     84% 0.00 in 373.00 W/m2
15:17 50.0 °F 45.4 °F 29.93 in Calm     84% 0.00 in 260.00 W/m2
15:22 49.9 °F 45.6 °F 29.93 in Calm   1.0 mph 85% 0.00 in 292.00 W/m2
15:27 49.8 °F 45.5 °F 29.92 in Calm     85% 0.00 in 318.00 W/m2
15:32 49.8 °F 45.5 °F 29.92 in Calm     85% 0.00 in 322.00 W/m2
15:37 49.7 °F 45.4 °F 29.92 in SSE 6.0 mph 10.0 mph 85% 0.00 in 279.00 W/m2
15:42 49.7 °F 45.1 °F 29.92 in Calm     84% 0.00 in 229.00 W/m2
15:47 49.5 °F 44.6 °F 29.92 in Calm   9.0 mph 83% 0.00 in 267.00 W/m2
15:52 49.3 °F 44.4 °F 29.92 in Calm   1.0 mph 83% 0.00 in 510.00 W/m2
15:57 49.5 °F 44.9 °F 29.92 in Calm     84% 0.00 in 965.00 W/m2
16:02 49.6 °F 44.3 °F 29.92 in Calm     82% 0.00 in 236.00 W/m2
16:07 49.7 °F 43.8 °F 29.92 in Calm   1.0 mph 80% 0.00 in 221.00 W/m2
16:12 50.0 °F 44.1 °F 29.92 in Calm   1.0 mph 80% 0.00 in 206.00 W/m2
16:17 50.1 °F 43.5 °F 29.92 in Calm   9.0 mph 78% 0.00 in 246.00 W/m2
16:22 50.3 °F 44.0 °F 29.92 in Calm   1.0 mph 79% 0.00 in 225.00 W/m2
16:26 50.4 °F 44.8 °F 29.92 in Calm   1.0 mph 81% 0.00 in 174.00 W/m2
16:31 50.4 °F 44.5 °F 29.92 in SE 4.0 mph 9.0 mph 80% 0.00 in 116.00 W/m2
16:36 50.4 °F 43.1 °F 29.92 in SSE 6.0 mph 9.0 mph 76% 0.00 in 47.00 W/m2
16:41 50.5 °F 43.6 °F 29.92 in Calm   1.0 mph 77% 0.00 in 56.00 W/m2
16:46 50.5 °F 43.6 °F 29.93 in South 9.0 mph 11.0 mph 77% 0.00 in 54.00 W/m2
16:51 50.5 °F 43.6 °F 29.92 in South 8.0 mph 9.0 mph 77% 0.00 in 65.00 W/m2
16:56 50.4 °F 43.1 °F 29.92 in South 4.0 mph 8.0 mph 76% 0.00 in 54.00 W/m2
17:01 50.4 °F 43.5 °F 29.93 in Calm   1.0 mph 77% 0.00 in 49.00 W/m2
17:07 50.1 °F 43.5 °F 29.93 in Calm     78% 0.00 in 25.00 W/m2
17:12 49.7 °F 43.5 °F 29.94 in Calm   10.0 mph 79% 0.00 in 23.00 W/m2
17:17 49.4 °F 43.2 °F 29.94 in Calm   4.0 mph 79% 0.00 in 23.00 W/m2
17:22 49.0 °F 43.4 °F 29.95 in Calm     81% 0.00 in 23.00 W/m2
17:27 48.7 °F 43.5 °F 29.95 in Calm     82% 0.00 in 25.00 W/m2
17:32 48.3 °F 43.4 °F 29.95 in Calm     83% 0.00 in 21.00 W/m2
17:37 47.7 °F 43.1 °F 29.96 in Calm     84% 0.00 in 21.00 W/m2
17:42 47.3 °F 42.7 °F 29.96 in Calm     84% 0.00 in 21.00 W/m2
17:47 47.0 °F 42.4 °F 29.97 in Calm     84% 0.00 in 30.00 W/m2
17:52 46.9 °F 42.3 °F 29.97 in Calm     84% 0.00 in 42.00 W/m2
18:02 46.4 °F 42.1 °F 29.97 in Calm     85% 0.00 in 53.00 W/m2
18:07 46.3 °F 42.0 °F 29.97 in Calm     85% 0.00 in 58.00 W/m2
18:12 46.2 °F 42.2 °F 29.97 in Calm     86% 0.00 in 67.00 W/m2
18:17 46.1 °F 42.2 °F 29.98 in Calm     86% 0.00 in 69.00 W/m2
18:22 46.1 °F 42.2 °F 29.98 in Calm     86% 0.00 in 79.00 W/m2
18:27 46.0 °F 42.0 °F 29.98 in ESE 6.0 mph 12.0 mph 86% 0.00 in 107.00 W/m2
18:32 45.9 °F 42.0 °F 29.98 in ESE 8.0 mph 13.0 mph 86% 0.00 in 102.00 W/m2
18:37 45.8 °F 41.5 °F 29.98 in ESE 12.0 mph 15.0 mph 85% 0.00 in 93.00 W/m2
18:42 45.6 °F 41.4 °F 29.98 in ESE 7.0 mph 12.0 mph 85% 0.00 in 83.00 W/m2
18:47 45.4 °F 41.2 °F 29.98 in East 13.0 mph 14.0 mph 85% 0.00 in 134.00 W/m2
18:52 45.1 °F 40.9 °F 29.98 in Calm   15.0 mph 85% 0.00 in 148.00 W/m2
18:57 45.0 °F 41.1 °F 29.98 in ESE 1.0 mph 15.0 mph 86% 0.00 in 111.00 W/m2
19:02 44.8 °F 40.6 °F 29.98 in East 13.0 mph 15.0 mph 85% 0.00 in 100.00 W/m2
19:07 44.7 °F 40.5 °F 29.98 in ESE 2.0 mph 12.0 mph 85% 0.00 in 227.00 W/m2
19:12 44.5 °F 40.3 °F 29.98 in East 12.0 mph 18.0 mph 85% 0.00 in 241.00 W/m2
19:17 44.5 °F 40.3 °F 29.98 in ESE 2.0 mph 14.0 mph 85% 0.00 in 204.00 W/m2
19:23 44.5 °F 40.6 °F 29.98 in East 7.0 mph 21.0 mph 86% 0.00 in 137.00 W/m2
19:28 44.4 °F 40.2 °F 29.98 in Calm   14.0 mph 85% 0.00 in 109.00 W/m2
19:33 44.3 °F 40.1 °F 29.98 in East 7.0 mph 16.0 mph 85% 0.00 in 86.00 W/m2
19:38 44.1 °F 39.9 °F 29.98 in East 4.0 mph 18.0 mph 85% 0.00 in 70.00 W/m2
19:43 44.0 °F 39.8 °F 29.99 in East 18.0 mph 19.0 mph 85% 0.00 in 56.00 W/m2
19:48 43.8 °F 39.6 °F 29.99 in SE 13.0 mph 18.0 mph 85% 0.00 in 49.00 W/m2
19:53 43.6 °F 39.4 °F 29.99 in East 7.0 mph 21.0 mph 85% 0.00 in 33.00 W/m2
19:58 43.5 °F 39.3 °F 29.99 in Calm   13.0 mph 85% 0.00 in 19.00 W/m2
20:03 43.4 °F 39.2 °F 29.99 in ESE 8.0 mph 23.0 mph 85% 0.00 in 16.00 W/m2
20:08 43.3 °F 39.1 °F 29.99 in ESE 12.0 mph 20.0 mph 85% 0.00 in 12.00 W/m2
20:13 43.2 °F 39.0 °F 29.99 in East 4.0 mph 19.0 mph 85% 0.00 in 11.00 W/m2
20:18 43.1 °F 38.9 °F 29.99 in ESE 8.0 mph 15.0 mph 85% 0.00 in 7.00 W/m2
20:23 43.0 °F 38.8 °F 29.99 in ESE 12.0 mph 16.0 mph 85% 0.00 in 5.00 W/m2
20:28 42.8 °F 38.6 °F 29.99 in East 11.0 mph 18.0 mph 85% 0.00 in 5.00 W/m2
20:33 42.7 °F 38.5 °F 29.99 in ESE 14.0 mph 16.0 mph 85% 0.00 in 0.00 W/m2
20:38 42.7 °F 38.5 °F 29.99 in ESE 12.0 mph 15.0 mph 85% 0.00 in 0.00 W/m2
20:43 42.6 °F 38.4 °F 29.99 in ESE 8.0 mph 15.0 mph 85% 0.00 in 0.00 W/m2
20:48 42.5 °F 38.3 °F 29.99 in ESE 4.0 mph 16.0 mph 85% 0.00 in 0.00 W/m2
20:53 42.4 °F 38.5 °F 29.99 in East 2.0 mph 13.0 mph 86% 0.00 in 0.00 W/m2
20:58 42.4 °F 38.5 °F 30.00 in ESE 1.0 mph 11.0 mph 86% 0.00 in 0.00 W/m2
21:03 42.4 °F 38.5 °F 30.00 in ESE 2.0 mph 12.0 mph 86% 0.00 in 0.00 W/m2
21:08 42.3 °F 38.4 °F 30.00 in East 6.0 mph 14.0 mph 86% 0.00 in 0.00 W/m2
21:13 42.3 °F 38.4 °F 30.00 in ESE 2.0 mph 15.0 mph 86% 0.00 in 0.00 W/m2
21:18 42.2 °F 38.3 °F 30.00 in East 1.0 mph 13.0 mph 86% 0.00 in 0.00 W/m2
21:23 42.3 °F 38.1 °F 30.00 in East 1.0 mph 11.0 mph 85% 0.00 in 0.00 W/m2
21:28 42.3 °F 38.4 °F 30.00 in East 7.0 mph 11.0 mph 86% 0.00 in 0.00 W/m2
21:33 42.3 °F 38.4 °F 30.01 in Calm   6.0 mph 86% 0.00 in 0.00 W/m2
21:38 42.3 °F 38.4 °F 30.01 in East 4.0 mph 12.0 mph 86% 0.00 in 0.00 W/m2
21:43 42.3 °F 38.4 °F 30.01 in ESE 4.0 mph 11.0 mph 86% 0.00 in 0.00 W/m2
21:48 42.3 °F 38.4 °F 30.01 in ESE 5.0 mph 13.0 mph 86% 0.00 in 0.00 W/m2
21:53 42.3 °F 38.4 °F 30.01 in ESE 2.0 mph 13.0 mph 86% 0.00 in 0.00 W/m2
21:58 42.3 °F 38.4 °F 30.01 in ESE 2.0 mph 12.0 mph 86% 0.00 in 0.00 W/m2
22:03 42.4 °F 38.5 °F 30.01 in ESE 7.0 mph 12.0 mph 86% 0.00 in 0.00 W/m2
22:08 42.4 °F 38.5 °F 30.01 in ESE 8.0 mph 14.0 mph 86% 0.00 in 0.00 W/m2
22:13 42.4 °F 38.5 °F 30.01 in ESE 7.0 mph 14.0 mph 86% 0.00 in 0.00 W/m2
22:18 42.4 °F 38.2 °F 30.01 in East 6.0 mph 12.0 mph 85% 0.00 in 0.00 W/m2
22:23 42.4 °F 38.2 °F 30.01 in ESE 4.0 mph 14.0 mph 85% 0.00 in 0.00 W/m2
22:28 42.3 °F 38.1 °F 30.01 in SE 5.0 mph 13.0 mph 85% 0.00 in 0.00 W/m2
22:33 42.3 °F 38.1 °F 30.01 in ESE 8.0 mph 14.0 mph 85% 0.00 in 0.00 W/m2
22:38 42.3 °F 38.1 °F 30.02 in ESE 8.0 mph 16.0 mph 85% 0.00 in 0.00 W/m2
22:43 42.3 °F 38.1 °F 30.02 in ESE 4.0 mph 12.0 mph 85% 0.00 in 0.00 W/m2
22:49 42.3 °F 38.1 °F 30.02 in ESE 7.0 mph 12.0 mph 85% 0.00 in 0.00 W/m2
22:54 42.3 °F 38.1 °F 30.02 in ESE 11.0 mph 13.0 mph 85% 0.00 in 0.00 W/m2
22:59 42.3 °F 38.4 °F 30.02 in ESE 9.0 mph 9.0 mph 86% 0.00 in 0.00 W/m2
23:04 42.4 °F 38.5 °F 30.02 in SE 2.0 mph 13.0 mph 86% 0.00 in 0.00 W/m2
23:09 42.4 °F 38.5 °F 30.02 in East 1.0 mph 9.0 mph 86% 0.00 in 0.00 W/m2
23:14 42.4 °F 38.2 °F 30.02 in East 2.0 mph 9.0 mph 85% 0.00 in 0.00 W/m2
23:19 42.4 °F 38.2 °F 30.02 in Calm     85% 0.00 in 0.00 W/m2
23:24 42.3 °F 38.1 °F 30.02 in Calm     85% 0.00 in 0.00 W/m2
23:29 42.3 °F 38.1 °F 30.02 in Calm     85% 0.00 in 0.00 W/m2
23:34 42.4 °F 38.2 °F 30.03 in Calm     85% 0.00 in 0.00 W/m2
23:39 42.4 °F 38.5 °F 30.03 in Calm     86% 0.00 in 0.00 W/m2
23:44 42.5 °F 38.6 °F 30.03 in Calm     86% 0.00 in 0.00 W/m2
23:49 42.5 °F 38.6 °F 30.03 in Calm     86% 0.00 in 0.00 W/m2
23:54 42.5 °F 38.6 °F 30.03 in Calm     86% 0.00 in 0.00 W/m2
23:56 42.6 °F 38.7 °F 30.03 in Calm     86% 0.00 in 0.00 W/m2
Foresthill Weather
 WU-history PHP script courtesy of   Juneau County Weather.
powered by Cumulus v1.9.3 (1059)
Ambient Weather VWS v14.00
Top Contact Website Map Copyright © 2007 - 2018 Foresthillweather.com Never base important decisions on this or any weather information obtained from the Internet